Regional Weather Roundup
Issued by NWS Northern Indiana

Home | Current Version | Previous Version | Graphics & Text | Print | Product List | Glossary On
Versions: 1 2 3 4 5 6 7 8 9 10 11 12 13 14 15 16 17 18 19 20 21 22 23 24 25 26 27 28 29 30 31 32 33 34 35 36 37 38 39 40 41 42 43 44 45 46 47 48 49 50
000
ASUS43 KIWX 061800
RWRIWX

KIWX WEATHER ROUNDUP
NATIONAL WEATHER SERVICE NORTHERN INDIANA
100 PM EST SAT FEB 06 2016

NOTE: "FAIR" INDICATES FEW OR NO CLOUDS BELOW 12,000 FEET WITH NO
SIGNIFICANT WEATHER AND/OR OBSTRUCTIONS TO VISIBILITY.

* THESE STATIONS ARE NOT UNDER NWS QUALITY CONTROL. THEY ALSO MAY NOT
  REPORT WEATHER SUCH AS PRECIPITATION OR FOG.

INZ001>027-061900-
NORTHERN INDIANA

CITY           SKY/WX    TMP DP  RH WIND       PRES   REMARKS
GARY*          MOSUNNY   37  23  56 SW14      30.24F
SOUTH BEND     SUNNY     34  22  61 SW13      30.24F WCI  25
6HR MIN TEMP:  20; 6HR MAX TEMP:  34;

ELKHART*       SUNNY     36  21  55 MISG      30.25F
GOSHEN         SUNNY     35  23  61 SW13      30.24F WCI  26
6HR MIN TEMP:  20; 6HR MAX TEMP:  35;

FORT WAYNE     MOSUNNY   34  24  67 W9        30.27F WCI  27
6HR MIN TEMP:  21; 6HR MAX TEMP:  34;

PERU/GRISSOM   SUNNY     37  25  62 SW12      30.25F
6HR MIN TEMP:  19; 6HR MAX TEMP:  37;


$$
INZ028>050-061900-
CENTRAL INDIANA

CITY           SKY/WX    TMP DP  RH WIND       PRES   REMARKS
LAFAYETTE      SUNNY     39  23  52 SW8       30.28F
6HR MIN TEMP:  17; 6HR MAX TEMP:  39;

KOKOMO*          N/A     37 N/A N/A SW9       30.27F
6HR MIN TEMP:  19; 6HR MAX TEMP:  37;

MUNCIE*        SUNNY     37  19  48 SW10      30.28F
6HR MIN TEMP:  22; 6HR MAX TEMP:  37;

INDIANAPOLIS   MOSUNNY   39  21  48 S5        30.29F
6HR MIN TEMP:  21; 6HR MAX TEMP:  39;


$$
MIZ043>046-050>051-056>058-064>065-071>073-077>080-061900-
SOUTHWEST LOWER MICHIGAN

CITY           SKY/WX    TMP DP  RH WIND       PRES   REMARKS
BATTLE CREEK   SUNNY     33  23  66 SW14      30.21F WCI  23
6HR MIN TEMP:  24; 6HR MAX TEMP:  33;

BENTON HARBOR  SUNNY     36  22  56 SW16      30.23F
6HR MIN TEMP:  26; 6HR MAX TEMP:  36;

COLDWATER*     SUNNY     33  25  71 W13       30.21F WCI  24
6HR MIN TEMP:  18; 6HR MAX TEMP:  33;

HILLSDALE*     SUNNY     33  23  67 SW10      30.21F WCI  24
6HR MIN TEMP:  21; 6HR MAX TEMP:  33;

HOLLAND        CLOUDY    34  25  69 SW17      30.21F WCI  23
6HR MIN TEMP:  25; 6HR MAX TEMP:  34;

GRAND RAPIDS   CLOUDY    33  25  72 SW18G24   30.19F WCI  22
6HR MIN TEMP:  27; 6HR MAX TEMP:  34;

KALAMAZOO      SUNNY     33  22  63 SW13      30.21F WCI  24
6HR MIN TEMP:  24; 6HR MAX TEMP:  34;

STURGIS*       SUNNY     32  23  69 SW15      30.22F WCI  22
6HR MIN TEMP:  19; 6HR MAX TEMP:  32;

THREE RIVERS*  FAIR      34  25  69 SW10      30.23F WCI  26
6HR MIN TEMP:  22; 6HR MAX TEMP:  34;


$$
OHZ001>008-015>018-024>025-061900-
NORTHWEST OHIO

CITY           SKY/WX    TMP DP  RH WIND       PRES   REMARKS
DEFIANCE       MOSUNNY   35  25  66 SW12G20   30.26F WCI  27
6HR MIN TEMP:  23; 6HR MAX TEMP:  35;

FINDLAY        MOSUNNY   32  24  72 SW8       30.27F HAZE    WCI  25
6HR MIN TEMP:  24; 6HR MAX TEMP:  34;

TOLEDO EXPRESS MOSUNNY   33  23  66 SW9       30.25F WCI  25
6HR MIN TEMP:  21; 6HR MAX TEMP:  35;

TOLEDO METCALF MOSUNNY   33  24  69 SW16      30.27F HAZE    WCI  23
6HR MIN TEMP:  23; 6HR MAX TEMP:  35;

LIMA           SUNNY     34  24  67 SW13      30.26F WCI  25
6HR MIN TEMP:  23; 6HR MAX TEMP:  34;


$$
AND FOR LAKE MICHIGAN COASTAL AND OPEN LAKE BUOY OBSERVATIONS

STATION/POSITION TEMP    WIND        PRES    VSBY  WAVE
                 AIR SEA DIR/SP/G                  HT/PER
                 (F)     (DEG/KT/KT) (MB)    (MI)  (FT/S)
CALUMET HARBOR    35     210/  9/ 13 1023.7F
MICHIGAN CITY     33     190/ 13/ 14   N/A
BURNS HARBOR      34     210/ 12/ 16 1025.1F
SAINT JOSEPH      32     190/ 14/ 17 1024.7F

$$
&&



USA.gov is the U.S. government's official web portal to all federal, state and local government web resources and services.